Hourly Weather Otoczna

Today, 28 July, Wednesday

Time Temperature Precipitation Wind Pressure Humidity
00:00 +22°C° 0 mm 1 mps 750 mmHg 65%
01:00 +21°C° 0 mm 1 mps 750 mmHg 66%
02:00 +21°C° 0 mm 1 mps 750 mmHg 67%
03:00 +20°C° 0 mm 2 mps 749 mmHg 69%
04:00 +19°C° 0 mm 2 mps 749 mmHg 71%
05:00 +21°C° 0 mm 3 mps 749 mmHg 70%
06:00 +22°C° 0 mm 3 mps 749 mmHg 69%
07:00 +24°C° 0 mm 3 mps 749 mmHg 66%
08:00 +26°C° 0 mm 3 mps 749 mmHg 60%
09:00 +28°C° 0 mm 4 mps 749 mmHg 53%
10:00 +30°C° 0 mm 4 mps 749 mmHg 47%
11:00 +30°C° 0 mm 4 mps 749 mmHg 44%
12:00 +32°C° 0 mm 5 mps 748 mmHg 41%
13:00 +32°C° 0 mm 5 mps 748 mmHg 40%
14:00 +32°C° 0 mm 5 mps 748 mmHg 41%
15:00 +32°C° 0 mm 5 mps 748 mmHg 42%
16:00 +30°C° 0 mm 5 mps 748 mmHg 44%
17:00 +28°C° 0.2 mm 5 mps 748 mmHg 50%
18:00 +26°C° 0.2 mm 5 mps 748 mmHg 57%
19:00 +23°C° 0.2 mm 5 mps 749 mmHg 63%
20:00 +22°C° 0.1 mm 4 mps 749 mmHg 68%
21:00 +21°C° 0.1 mm 4 mps 749 mmHg 73%
22:00 +20°C° 0.1 mm 3 mps 749 mmHg 77%
23:00 +19°C° 0 mm 3 mps 749 mmHg 82%

Tomorrow, 29 July, Thursday

Time Temperature Precipitation Wind Pressure Humidity
00:00 +18°C° 0 mm 3 mps 749 mmHg 86%
01:00 +17°C° 0 mm 3 mps 749 mmHg 91%
02:00 +17°C° 0 mm 3 mps 749 mmHg 91%
03:00 +16°C° 0 mm 3 mps 749 mmHg 92%
04:00 +16°C° 0 mm 3 mps 749 mmHg 93%
05:00 +18°C° 0 mm 4 mps 749 mmHg 87%
06:00 +19°C° 0 mm 4 mps 749 mmHg 80%
07:00 +20°C° 0 mm 4 mps 749 mmHg 73%
08:00 +22°C° 0 mm 5 mps 749 mmHg 66%
09:00 +23°C° 0 mm 6 mps 749 mmHg 59%
10:00 +26°C° 0 mm 7 mps 749 mmHg 52%
11:00 +27°C° 0 mm 7 mps 749 mmHg 46%
12:00 +27°C° 0 mm 7 mps 749 mmHg 41%
13:00 +28°C° 0 mm 7 mps 749 mmHg 35%
14:00 +28°C° 0 mm 8 mps 749 mmHg 35%
15:00 +28°C° 0 mm 8 mps 749 mmHg 35%
16:00 +27°C° 0 mm 8 mps 749 mmHg 36%
17:00 +26°C° 0 mm 7 mps 749 mmHg 40%
18:00 +23°C° 0 mm 6 mps 749 mmHg 45%
19:00 +22°C° 0 mm 4 mps 749 mmHg 50%
20:00 +21°C° 0 mm 4 mps 749 mmHg 52%
21:00 +20°C° 0 mm 4 mps 749 mmHg 54%
22:00 +19°C° 0 mm 3 mps 749 mmHg 56%
23:00 +18°C° 0 mm 3 mps 749 mmHg 59%

Day after tomorrow, 30 July, Friday

Time Temperature Precipitation Wind Pressure Humidity
00:00 +18°C° 0 mm 3 mps 749 mmHg 62%
01:00 +17°C° 0 mm 3 mps 749 mmHg 64%
02:00 +16°C° 0 mm 3 mps 749 mmHg 67%
03:00 +16°C° 0 mm 3 mps 749 mmHg 70%
04:00 +14°C° 0 mm 3 mps 749 mmHg 73%
05:00 +16°C° 0 mm 3 mps 749 mmHg 68%
06:00 +18°C° 0 mm 3 mps 749 mmHg 64%
07:00 +19°C° 0 mm 3 mps 749 mmHg 59%
08:00 +21°C° 0 mm 4 mps 749 mmHg 54%
09:00 +22°C° 0 mm 5 mps 748 mmHg 49%
10:00 +24°C° 0 mm 6 mps 748 mmHg 44%
11:00 +26°C° 0 mm 6 mps 748 mmHg 42%
12:00 +27°C° 0 mm 6 mps 748 mmHg 39%
13:00 +28°C° 0 mm 7 mps 747 mmHg 37%
14:00 +28°C° 0 mm 6 mps 747 mmHg 36%
15:00 +28°C° 0 mm 6 mps 747 mmHg 36%
16:00 +28°C° 0 mm 6 mps 747 mmHg 36%
17:00 +26°C° 0 mm 5 mps 747 mmHg 41%
18:00 +25°C° 0 mm 3 mps 746 mmHg 46%
19:00 +24°C° 0 mm 2 mps 746 mmHg 51%
20:00 +21°C° 0 mm 2 mps 746 mmHg 53%
21:00 +21°C° 0 mm 1 mps 746 mmHg 55%
22:00 +18°C° 0 mm 0 mps 746 mmHg 57%
23:00 +20°C° 0 mm 1 mps 746 mmHg 58%

31 July, Saturday

Time Temperature Precipitation Wind Pressure Humidity
00:00 +20°C° 0 mm 1 mps 746 mmHg 59%
01:00 +18°C° 0 mm 2 mps 746 mmHg 59%
02:00 +18°C° 0 mm 2 mps 746 mmHg 60%
03:00 +18°C° 0 mm 2 mps 746 mmHg 61%
04:00 +18°C° 0 mm 2 mps 745 mmHg 62%
05:00 +19°C° 0 mm 3 mps 745 mmHg 61%
06:00 +20°C° 0 mm 3 mps 745 mmHg 61%
07:00 +22°C° 0 mm 4 mps 745 mmHg 60%
08:00 +23°C° 0 mm 5 mps 745 mmHg 57%
09:00 +25°C° 0 mm 5 mps 746 mmHg 54%
10:00 +26°C° 0 mm 6 mps 746 mmHg 50%
11:00 +27°C° 0 mm 6 mps 746 mmHg 44%
12:00 +28°C° 0 mm 7 mps 746 mmHg 38%
13:00 +29°C° 0 mm 7 mps 745 mmHg 32%
14:00 +29°C° 0 mm 7 mps 745 mmHg 32%
15:00 +28°C° 0 mm 8 mps 745 mmHg 32%
16:00 +28°C° 0 mm 8 mps 745 mmHg 32%
17:00 +27°C° 0 mm 7 mps 745 mmHg 36%
18:00 +24°C° 0 mm 7 mps 746 mmHg 39%
19:00 +23°C° 0 mm 6 mps 746 mmHg 43%
20:00 +21°C° 0 mm 5 mps 746 mmHg 48%
21:00 +20°C° 0 mm 4 mps 747 mmHg 53%
22:00 +18°C° 0 mm 3 mps 747 mmHg 57%
23:00 +17°C° 0 mm 3 mps 747 mmHg 61%

1 August, Sunday

Time Temperature Precipitation Wind Pressure Humidity
00:00 +17°C° 0 mm 3 mps 747 mmHg 64%
01:00 +16°C° 0 mm 3 mps 747 mmHg 67%
02:00 +16°C° 0 mm 3 mps 747 mmHg 70%
03:00 +14°C° 0 mm 3 mps 747 mmHg 73%
04:00 +14°C° 0 mm 3 mps 747 mmHg 76%
05:00 +16°C° 0 mm 3 mps 747 mmHg 74%
06:00 +17°C° 0 mm 3 mps 748 mmHg 71%
07:00 +18°C° 0 mm 3 mps 748 mmHg 69%
08:00 +19°C° 0 mm 3 mps 748 mmHg 64%
09:00 +20°C° 0 mm 3 mps 748 mmHg 59%
10:00 +23°C° 0 mm 2 mps 748 mmHg 54%
11:00 +23°C° 0 mm 2 mps 747 mmHg 53%
12:00 +23°C° 0 mm 2 mps 747 mmHg 53%
13:00 +23°C° 0 mm 2 mps 747 mmHg 52%
14:00 +21°C° 0.3 mm 2 mps 747 mmHg 61%
15:00 +20°C° 0.3 mm 3 mps 747 mmHg 70%
16:00 +18°C° 0.3 mm 3 mps 747 mmHg 79%
17:00 +18°C° 0 mm 3 mps 747 mmHg 80%
18:00 +18°C° 0 mm 3 mps 746 mmHg 81%
19:00 +18°C° 0 mm 3 mps 746 mmHg 82%
20:00 +17°C° 0.1 mm 3 mps 747 mmHg 84%
21:00 +17°C° 0.1 mm 3 mps 747 mmHg 86%
22:00 +16°C° 0.1 mm 3 mps 747 mmHg 88%
23:00 +16°C° 0.2 mm 3 mps 746 mmHg 89%

2 August, Monday

Time Temperature Precipitation Wind Pressure Humidity
00:00 +16°C° 0.2 mm 3 mps 746 mmHg 90%
01:00 +16°C° 0.2 mm 3 mps 746 mmHg 91%
02:00 +16°C° 0.2 mm 3 mps 746 mmHg 92%
03:00 +15°C° 0.2 mm 4 mps 746 mmHg 92%
04:00 +15°C° 0.2 mm 4 mps 746 mmHg 92%
05:00 +15°C° 0 mm 4 mps 746 mmHg 89%
06:00 +16°C° 0 mm 5 mps 746 mmHg 86%
07:00 +17°C° 0 mm 5 mps 746 mmHg 84%
08:00 +19°C° 0.1 mm 6 mps 747 mmHg 77%
09:00 +20°C° 0.1 mm 7 mps 747 mmHg 69%
10:00 +21°C° 0.1 mm 7 mps 747 mmHg 62%
11:00 +22°C° 0 mm 7 mps 747 mmHg 54%
12:00 +23°C° 0 mm 8 mps 747 mmHg 46%
13:00 +24°C° 0 mm 8 mps 747 mmHg 37%
14:00 +24°C° 0 mm 8 mps 747 mmHg 36%
15:00 +24°C° 0 mm 7 mps 748 mmHg 34%
16:00 +24°C° 0 mm 7 mps 748 mmHg 32%
17:00 +23°C° 0 mm 6 mps 748 mmHg 36%
18:00 +21°C° 0 mm 5 mps 748 mmHg 40%
19:00 +20°C° 0 mm 4 mps 748 mmHg 44%
20:00 +19°C° 0 mm 3 mps 748 mmHg 48%
21:00 +18°C° 0 mm 3 mps 749 mmHg 53%
22:00 +17°C° 0 mm 3 mps 749 mmHg 57%
23:00 +16°C° 0 mm 3 mps 749 mmHg 61%
Show more